EB7GYR Weather Reports


Display with metric or nautical units.
time (UTC)temp
F
wind
direction
speed
MPH
gust
MPH
rain 1hr
in
rain 24hr
in
rain mn
in
humidity
%
barometer
mb
20260510224518 62 0.0 0.0 0.00 0.00 0.00 81 1015.1
20260510223518 62 0.0 0.0 0.00 0.00 0.00 80 1015.1
20260510222517 62 0.0 0.0 0.00 0.00 0.00 79 1015.1
20260510221518 62 0.0 0.0 0.00 0.00 0.00 78 1015.1
20260510220519 63 0.0 0.0 0.00 0.00 0.00 76 1015.1
20260510215516 63 180 1.0 3.0 0.00 0.00 0.00 76 1015.1
20260510214516 63 203 1.0 4.0 0.00 0.00 0.00 76 1015.1
20260510213516 63 203 3.0 6.0 0.00 0.00 0.00 76 1015.1
20260510212516 63 203 3.0 5.0 0.00 0.00 0.00 75 1015.1
20260510211516 63 180 3.0 5.0 0.00 0.00 0.00 75 1015.0
20260510210516 63 203 2.0 6.0 0.00 0.00 0.00 74 1015.0
20260510205516 64 203 4.0 6.0 0.00 0.00 0.00 74 1014.9
20260510204516 64 225 3.0 6.0 0.00 0.00 0.00 73 1014.7
20260510203516 64 203 4.0 7.0 0.00 0.00 0.00 73 1014.6
20260510202519 64 225 3.0 5.0 0.00 0.00 0.00 72 1014.6
20260510201518 64 248 2.0 7.0 0.00 0.00 0.00 72 1014.6
20260510200517 64 225 5.0 10.0 0.00 0.00 0.00 72 1014.5
20260510195518 64 225 3.0 6.0 0.00 0.00 0.00 72 1014.4
20260510194518 64 225 4.0 7.0 0.00 0.00 0.00 71 1014.3
20260510193517 64 225 4.0 8.0 0.00 0.00 0.00 71 1014.3
20260510192518 65 225 4.0 8.0 0.00 0.00 0.00 71 1014.3
20260510191517 65 225 5.0 11.0 0.00 0.00 0.00 70 1014.0
20260510190517 65 248 5.0 11.0 0.00 0.00 0.00 69 1014.1
20260510185517 65 225 5.0 11.0 0.00 0.00 0.00 69 1014.1
20260510184517 66 225 4.0 10.0 0.00 0.00 0.00 68 1014.1
20260510183517 66 225 2.0 8.0 0.00 0.00 0.00 71 1014.1
20260510182517 66 225 7.0 17.0 0.00 0.00 0.00 69 1014.1
20260510181517 66 225 4.0 10.0 0.00 0.00 0.00 70 1014.0
20260510180517 66 203 8.0 15.0 0.00 0.00 0.00 70 1014.1
20260510175518 66 225 7.0 13.0 0.00 0.00 0.00 69 1014.1
20260510174517 66 225 7.0 14.0 0.00 0.00 0.00 68 1013.9
20260510173518 66 225 7.0 13.0 0.00 0.00 0.00 68 1013.8
20260510172519 66 248 8.0 13.0 0.00 0.00 0.00 69 1013.9
20260510171518 66 248 9.0 15.0 0.00 0.00 0.00 68 1014.0
20260510170517 66 225 8.0 15.0 0.00 0.00 0.00 67 1013.9
20260510165518 66 225 7.0 13.0 0.00 0.00 0.00 65 1013.9
20260510164518 67 225 10.0 17.0 0.00 0.00 0.00 63 1013.8
20260510163558 67 225 8.0 16.0 0.00 0.00 0.00 59 1014.0
20260510162518 67 225 9.0 18.0 0.00 0.00 0.00 60 1013.7
20260510161517 67 248 9.0 16.0 0.00 0.00 0.00 59 1013.9
20260510160519 67 225 10.0 21.0 0.00 0.00 0.00 62 1013.8
20260510155518 68 225 10.0 21.0 0.00 0.00 0.00 62 1013.9
20260510154517 68 225 12.0 23.0 0.00 0.00 0.00 61 1013.9
20260510153517 68 225 13.0 25.0 0.00 0.00 0.00 59 1014.0
20260510152518 68 225 12.0 27.0 0.00 0.00 0.00 56 1013.8
20260510151518 68 225 10.0 20.0 0.00 0.00 0.00 56 1013.9
20260510150517 68 225 12.0 23.0 0.00 0.00 0.00 56 1013.7
20260510145517 67 225 9.0 18.0 0.00 0.00 0.00 61 1013.8
20260510144517 66 225 10.0 21.0 0.00 0.00 0.00 65 1014.0
20260510143518 66 248 11.0 20.0 0.00 0.00 0.00 65 1014.2
20260510142517 68 225 13.0 22.0 0.00 0.00 0.00 66 1014.1
20260510141537 68 225 13.0 25.0 0.00 0.00 0.00 60 1014.3
20260510140518 68 225 9.0 18.0 0.00 0.00 0.00 61 1014.1
20260510135518 67 225 7.0 19.0 0.00 0.00 0.00 64 1014.1
20260510134538 67 225 11.0 20.0 0.00 0.00 0.00 63 1014.1
20260510133517 67 225 11.0 19.0 0.00 0.00 0.00 65 1014.0
20260510132537 67 225 13.0 21.0 0.00 0.00 0.00 66 1014.0
20260510131518 67 225 13.0 24.0 0.00 0.00 0.00 66 1014.0
20260510130517 67 248 12.0 22.0 0.00 0.00 0.00 68 1014.1
20260510125517 67 225 12.0 20.0 0.00 0.00 0.00 70 1013.9
20260510124517 66 225 10.0 18.0 0.00 0.00 0.00 72 1014.0
20260510123517 66 225 13.0 23.0 0.00 0.00 0.00 73 1014.1
20260510122517 66 225 15.0 26.0 0.00 0.00 0.00 72 1014.0
20260510121517 67 225 12.0 22.0 0.00 0.00 0.00 72 1014.0
20260510120517 67 203 12.0 21.0 0.00 0.00 0.00 73 1014.0
20260510115537 67 203 14.0 29.0 0.00 0.00 0.00 73 1013.8
20260510114517 67 203 13.0 24.0 0.00 0.00 0.00 72 1013.8
20260510113517 68 203 12.0 20.0 0.00 0.00 0.00 70 1013.9
20260510112517 68 203 11.0 24.0 0.00 0.00 0.00 70 1013.9
20260510111518 67 225 12.0 23.0 0.00 0.00 0.00 71 1013.9
20260510110516 68 203 11.0 20.0 0.00 0.00 0.00 70 1013.8
20260510105516 68 203 12.0 20.0 0.00 0.00 0.00 72 1013.8
20260510104517 68 180 8.0 23.0 0.00 0.00 0.00 73 1013.9
20260510103516 67 180 8.0 20.0 0.00 0.00 0.00 75 1013.8
20260510102517 67 203 8.0 16.0 0.00 0.00 0.00 76 1013.8
20260510101517 66 225 8.0 16.0 0.00 0.00 0.00 77 1013.9
20260510100516 66 225 9.0 17.0 0.00 0.00 0.00 77 1013.9
20260510095517 66 225 9.0 15.0 0.00 0.00 0.00 79 1013.9
20260510094516 65 225 8.0 15.0 0.00 0.00 0.00 82 1013.9
20260510093517 64 203 8.0 16.0 0.00 0.00 0.00 84 1013.9
20260510092536 63 203 9.0 20.0 0.00 0.00 0.00 86 1013.9
20260510091516 62 203 8.0 17.0 0.00 0.00 0.00 88 1013.8
20260510090517 61 203 7.0 16.0 0.00 0.00 0.00 90 1013.5
20260510085516 61 203 8.0 17.0 0.00 0.00 0.00 91 1013.4
20260510084536 61 203 6.0 12.0 0.00 0.00 0.00 92 1013.3
20260510083517 60 225 8.0 16.0 0.00 0.00 0.00 92 1013.4
20260510082516 60 203 7.0 19.0 0.00 0.00 0.00 92 1013.4
20260510081516 61 225 7.0 14.0 0.00 0.00 0.00 92 1013.5
20260510080516 61 203 4.0 12.0 0.00 0.00 0.00 92 1013.2
20260510075517 60 203 4.0 9.0 0.00 0.00 0.00 92 1013.0
20260510074557 59 203 4.0 8.0 0.00 0.00 0.00 92 1013.1
20260510073537 59 203 3.0 6.0 0.00 0.00 0.00 92 1013.1
20260510072516 59 225 5.0 9.0 0.00 0.00 0.00 91 1013.0
20260510071517 59 225 5.0 11.0 0.00 0.00 0.00 91 1012.9
20260510070516 59 225 8.0 16.0 0.00 0.00 0.00 91 1013.0
20260510065538 59 225 7.0 15.0 0.00 0.00 0.00 90 1013.0
20260510064516 60 225 8.0 16.0 0.00 0.00 0.00 90 1012.8
20260510063537 62 180 6.0 14.0 0.00 0.00 0.00 91 1012.6
20260510062516 62 180 8.0 17.0 0.00 0.00 0.00 91 1012.4
20260510061516 62 180 7.0 14.0 0.00 0.00 0.00 91 1012.4
20260510060536 62 180 6.0 11.0 0.00 0.00 0.00 91 1012.5
20260510055516 61 180 7.0 14.0 0.00 0.00 0.00 91 1012.4
20260510054516 61 158 6.0 11.0 0.00 0.00 0.00 91 1012.3
20260510053516 61 158 8.0 13.0 0.00 0.00 0.00 91 1012.2
20260510052536 61 158 6.0 11.0 0.00 0.00 0.00 91 1012.2
20260510051517 61 158 6.0 10.0 0.00 0.00 0.00 90 1012.2
20260510050517 60 158 6.0 10.0 0.00 0.00 0.00 90 1012.2
20260510045516 60 158 5.0 9.0 0.00 0.00 0.00 90 1012.2
20260510044516 60 158 6.0 9.0 0.00 0.00 0.00 89 1012.0
20260510043537 60 158 5.0 9.0 0.00 0.00 0.00 89 1011.9
20260510042516 60 158 4.0 8.0 0.00 0.00 0.00 89 1012.0
20260510041536 61 158 5.0 9.0 0.00 0.00 0.00 88 1012.1
20260510040516 61 158 5.0 8.0 0.00 0.00 0.00 88 1012.2
20260510035516 62 180 5.0 9.0 0.00 0.00 0.00 88 1012.2
20260510034516 62 180 4.0 8.0 0.00 0.00 0.00 88 1012.2
20260510033516 62 180 5.0 9.0 0.00 0.00 0.00 88 1012.2
20260510032516 61 203 5.0 14.0 0.00 0.00 0.00 88 1012.2
20260510031516 61 203 5.0 8.0 0.00 0.00 0.00 88 1012.0
20260510030516 61 203 6.0 13.0 0.00 0.00 0.00 89 1012.1
20260510025516 62 203 6.0 16.0 0.00 0.00 0.00 89 1012.1
20260510024516 62 203 5.0 13.0 0.00 0.00 0.00 90 1012.2
20260510023516 61 180 5.0 10.0 0.00 0.00 0.00 90 1012.1
20260510022517 61 180 6.0 11.0 0.00 0.00 0.00 90 1012.1
20260510021519 61 158 4.0 7.0 0.00 0.00 0.00 89 1012.3
20260510020518 61 158 5.0 8.0 0.00 0.00 0.00 89 1012.4
20260510015517 60 203 2.0 6.0 0.00 0.00 0.00 88 1012.3
20260510014518 61 203 5.0 8.0 0.00 0.00 0.00 88 1012.5
20260510013517 61 180 3.0 7.0 0.00 0.00 0.00 87 1012.5
20260510012519 62 225 1.0 7.0 0.00 0.00 0.00 88 1012.7
20260510011517 62 203 3.0 7.0 0.00 0.00 0.00 87 1012.8
20260510010519 62 158 6.0 9.0 0.00 0.00 0.00 87 1012.7
20260510005517 62 135 6.0 9.0 0.00 0.00 0.00 86 1012.8
20260510004537 62 135 5.0 8.0 0.00 0.00 0.00 85 1012.9
20260510003517 63 158 5.0 9.0 0.00 0.00 0.00 84 1013.1
20260510002517 63 158 5.0 8.0 0.00 0.00 0.00 83 1013.1
20260510001519 63 180 5.0 10.0 0.00 0.00 0.00 83 1013.2
20260510000517 63 180 5.0 9.0 0.00 0.00 0.00 83 1013.2
20260509235538 64 180 5.0 11.0 0.00 0.00 0.00 83 1013.3
20260509234539 64 180 6.0 11.0 0.00 0.00 0.00 83 1013.3
20260509233517 64 180 5.0 11.0 0.00 0.00 0.00 84 1013.4
20260509232518 64 180 6.0 15.0 0.00 0.00 0.00 83 1013.4
20260509231519 64 180 5.0 11.0 0.00 0.00 0.00 83 1013.4
20260509230538 64 180 6.0 11.0 0.00 0.00 0.00 83 1013.5
20260509225518 64 180 5.0 13.0 0.00 0.00 0.00 84 1013.5